[[{"header":{"parameterUnit":"m.s-1","parameterCategory":1,"la1":30.2991,"la2":30.254,"lo1":-89.0895,"lo2":-89.0444,"dy":0.0017,"dx":0.0017,"nx":28,"ny":28,"refTime":"2024-09-25T21:00:00:Z","depth":0,"parameterNumber":2,"parameterNumberName":"U-component_of_WINDS"},"data":[0,0,0,0,0,0,0,0,0,0,0,0,0,0,0,0,0,0,0,0,0,0,0,0,0,0,0,0,0,0,0,0,0,0,0,0,0,0,0,0,0,0,0,0,0,0,0,0,0,0,0,0,0,0,0,0,0,0,4.6246,4.6247,0,4.6351,4.6352,4.6353,4.6319,4.6316,4.6314,4.6312,4.6418,4.6423,4.6428,0,0,0,0,0,0,0,0,0,0,0,0,0,4.6016,4.6021,4.6246,4.6247,4.6249,4.6351,4.6352,4.6354,4.6319,4.6316,4.6313,4.6311,4.6417,4.6422,4.6428,0,0,0,0,0,0,0,0,0,0,0,0,0,4.6118,4.6022,4.6246,4.6244,4.6245,4.635,4.6352,4.6354,4.632,4.6316,4.6313,4.631,4.6415,4.6422,4.6429,4.6543,0,0,4.6452,4.6455,0,0,0,0,0,0,0,0,4.6112,4.6127,4.6243,4.6244,4.6245,4.6318,4.631,4.6417,4.632,4.6291,4.6312,4.6308,4.6388,4.6397,4.6424,4.6548,4.6552,4.6452,4.6457,4.646,4.6462,0,0,0,0,0,0,0,4.6105,4.6122,4.6287,4.6244,4.6246,4.6238,4.6248,4.633,4.6357,4.6293,4.6291,4.6304,4.6388,4.6417,4.6426,4.6554,4.6452,4.6459,4.6463,4.6466,4.6778,4.6782,0,0,0,0,0,0,4.6098,4.6116,4.6284,4.6291,4.6169,4.6245,4.6257,4.6298,4.6356,4.6362,4.6307,4.6302,4.6406,4.6418,4.643,4.6568,4.646,4.6467,4.6471,4.6774,4.6779,4.6783,0,0,0,0,0,0,4.6093,4.6113,4.628,4.6203,4.6224,4.6252,4.6299,4.6302,4.6331,4.6366,4.6371,4.6332,4.6404,4.6419,4.6515,4.6571,4.647,4.6477,4.677,4.6776,4.6781,4.6844,0,0,0,0,0,0,4.6086,4.6111,4.6155,4.6204,4.6228,4.6364,4.6303,4.6307,4.6344,4.6339,4.6391,4.6396,4.6402,4.6505,4.6523,4.6579,4.6483,4.6765,4.6772,4.6779,4.6837,4.6851,4.6863,0,0,0,0,0,4.6078,4.6168,4.6157,4.6178,4.6283,4.6367,4.638,4.6386,4.6349,4.6393,4.6416,4.6395,4.6562,4.6515,4.6535,4.6594,4.6761,4.677,4.6778,4.6831,4.6848,4.6863,0,0,0,0,0,0,4.6123,4.6174,4.6163,4.6271,4.6315,4.6361,4.6416,4.6404,4.6459,4.6451,4.6455,4.6468,4.6566,4.659,4.6536,4.6708,4.6656,4.6669,4.6689,4.6706,4.6719,4.671,4.6489,0,0,0,0,0,4.6146,4.621,4.6251,4.6343,4.6366,4.6388,4.6424,4.6425,4.647,4.6489,4.6518,4.6563,4.6626,4.6667,4.6727,4.684,4.6851,4.6891,4.6904,4.6915,4.6926,4.6989,4.7007,4.6811,4.6811,4.6811,0,0,4.6193,4.6229,4.6269,4.6353,4.6387,4.6454,4.6403,4.6476,4.6525,4.65,4.6592,4.6616,4.6666,4.6772,4.682,4.6795,4.6983,4.6926,4.6934,4.694,4.7,4.7018,4.7035,4.6817,4.6816,4.6815,0,0,4.6313,4.6346,4.6427,4.6462,4.6515,4.653,4.6549,4.6598,4.6613,4.6706,4.6688,4.6748,4.6855,4.6893,4.6925,4.7062,4.7045,4.7081,4.7149,4.7211,4.7226,4.724,4.7289,4.7306,4.7092,4.7093,4.7093,0,4.6364,4.6464,4.6469,4.6544,4.6582,4.6563,4.6644,4.6679,4.6748,4.6775,4.6746,4.6882,4.6914,4.7029,4.7062,4.709,4.7112,4.7075,4.7223,4.7237,4.725,4.7297,4.7315,4.7097,4.7096,4.7096,4.7095,0,4.6526,4.6596,4.6654,4.6723,4.6767,4.6845,4.6862,4.6906,4.6904,4.6921,4.7017,4.7056,4.7124,4.7151,4.7148,4.7266,4.7249,4.7222,4.7169,4.7273,4.7317,4.7335,4.7102,4.7101,4.71,4.7099,0,0,4.6675,4.6747,4.6768,4.68,4.6858,4.6912,4.6989,4.7056,4.7094,4.7144,4.7209,4.7302,4.7278,4.7315,4.7317,4.7371,4.7477,4.7337,4.7339,4.7362,4.761,4.7629,4.765,4.7467,4.747,4.7473,4.7605,0,4.68,4.6936,4.6944,4.7067,4.7132,4.7116,4.7184,4.7227,4.7246,4.7304,4.7325,4.7391,4.7354,4.7377,4.7429,4.7453,4.7527,4.7444,4.7528,4.7531,4.7515,4.7673,4.7694,4.7817,4.7623,4.7626,4.7628,0,4.6963,4.7018,4.7149,4.7199,4.7226,4.7287,4.735,4.7405,4.7454,4.7464,4.7508,4.7502,4.7582,4.7528,4.7638,4.7582,4.7617,4.7634,4.7639,4.7646,4.7585,4.7685,4.7856,4.7874,4.7655,4.7653,4.7651,0,4.7059,4.7166,4.7258,4.7286,4.7346,4.739,4.7417,4.7462,4.7503,4.7558,4.7584,4.7648,4.7682,4.7732,4.7744,4.7703,4.7855,4.7801,4.7866,4.7865,4.7897,4.7895,4.8076,4.7921,4.792,4.792,4.792,0,4.7198,4.7278,4.7303,4.7359,4.7449,4.7458,4.7547,4.7571,4.7612,4.7674,4.7664,4.7722,4.7735,4.7795,4.7806,4.7896,4.7912,4.7922,4.7924,4.7923,4.7922,4.7945,4.7937,4.7925,4.7924,4.7923,4.7922,0,4.732,4.7339,4.7439,4.7489,4.7503,4.7567,4.761,4.7665,4.7683,4.7761,4.778,4.7809,4.788,4.7898,4.7982,4.7989,4.8096,4.809,4.808,4.8079,4.8143,4.8136,4.8345,4.8373,4.8199,4.8201,4.8202,0,4.7406,4.7468,4.7525,4.7566,4.7595,4.7661,4.7702,4.7713,4.7757,4.7819,4.7866,4.7936,4.7993,4.8107,4.8136,4.8201,4.8196,4.8265,4.8205,4.8203,4.8197,4.8193,4.8199,4.8275,4.8277,4.8279,4.828,0,4.7558,4.7565,4.7625,4.769,4.774,4.7791,4.784,4.7874,4.7892,4.7942,4.8015,4.8059,4.8146,4.8216,4.8281,4.831,4.8299,4.8299,4.8317,4.8316,4.8308,4.8314,4.811,4.8294,4.8292,4.8291,4.829,4.829,4.7665,4.772,4.7769,4.7836,4.7875,4.7921,4.7975,4.8001,4.8062,4.8134,4.8138,4.8217,4.8266,4.8353,4.8386,4.8448,4.8427,4.8454,4.846,4.8467,4.8472,4.8299,4.846,4.846,4.846,4.8459,4.8459,0,4.7816,4.7847,4.791,4.7979,4.8033,4.8019,4.8072,4.8118,4.8188,4.8235,4.8292,4.8376,4.8444,4.8479,4.8547,4.8591,4.8587,4.8608,4.8605,4.8612,4.8487,4.8464,4.861,4.861,4.861,4.861,4.861,4.861,4.7901,4.7993,4.8006,4.8117,4.8148,4.8226,4.8258,4.8301,4.8339,4.8434,4.8491,4.8513,4.8556,4.8627,4.8689,4.8698,4.8723,4.8747,4.8753,4.8635,4.862,4.8605,4.8584,4.8752,4.8752,4.8872,4.8873,4.8874]},{"header":{"parameterUnit":"m.s-1","parameterCategory":1,"la1":30.2991,"la2":30.254,"lo1":-89.0895,"lo2":-89.0444,"dy":0.0017,"dx":0.0017,"nx":28,"ny":28,"refTime":"2024-09-25T21:00:00:Z","depth":0,"parameterNumber":3,"parameterNumberName":"V-component_of_WINDS"},"data":[0,0,0,0,0,0,0,0,0,0,0,0,0,0,0,0,0,0,0,0,0,0,0,0,0,0,0,0,0,0,0,0,0,0,0,0,0,0,0,0,0,0,0,0,0,0,0,0,0,0,0,0,0,0,0,0,0,0,-6.6566,-6.6568,0,-6.6793,-6.6795,-6.6798,-6.6759,-6.6755,-6.6751,-6.6748,-6.6979,-6.6988,-6.6998,0,0,0,0,0,0,0,0,0,0,0,0,0,-6.6098,-6.6107,-6.6566,-6.6569,-6.6571,-6.6792,-6.6796,-6.6799,-6.676,-6.6755,-6.675,-6.6746,-6.6975,-6.6987,-6.6999,0,0,0,0,0,0,0,0,0,0,0,0,0,-6.6311,-6.611,-6.6565,-6.6579,-6.6582,-6.6792,-6.6796,-6.68,-6.6761,-6.6755,-6.6749,-6.6744,-6.6972,-6.6986,-6.7001,-6.7211,0,0,-6.7046,-6.7052,0,0,0,0,0,0,0,0,-6.6299,-6.6328,-6.6574,-6.6578,-6.6582,-6.6742,-6.6716,-6.6937,-6.6762,-6.6693,-6.6747,-6.6741,-6.6905,-6.6924,-6.698,-6.7221,-6.7231,-6.7047,-6.7056,-6.7062,-6.7066,0,0,0,0,0,0,0,-6.6284,-6.6318,-6.6655,-6.6578,-6.6583,-6.6573,-6.6597,-6.6757,-6.6829,-6.6699,-6.6696,-6.6724,-6.6906,-6.6966,-6.6985,-6.7235,-6.7047,-6.706,-6.7069,-6.7075,-6.7662,-6.7668,0,0,0,0,0,0,-6.6266,-6.6306,-6.6648,-6.6662,-6.6423,-6.6587,-6.6613,-6.6697,-6.6827,-6.6842,-6.6729,-6.6721,-6.6944,-6.6968,-6.6993,-6.725,-6.7062,-6.7076,-6.7084,-6.7655,-6.7663,-6.7671,0,0,0,0,0,0,-6.6256,-6.6297,-6.6639,-6.6484,-6.6527,-6.6601,-6.6695,-6.6704,-6.6764,-6.685,-6.6863,-6.6777,-6.694,-6.6972,-6.7157,-6.7257,-6.7083,-6.7096,-6.7647,-6.7658,-6.7667,-6.7763,0,0,0,0,0,0,-6.6242,-6.6293,-6.6374,-6.6486,-6.6535,-6.68,-6.6701,-6.6713,-6.679,-6.6782,-6.6899,-6.6912,-6.6938,-6.7136,-6.7172,-6.7274,-6.7108,-6.7639,-6.7652,-6.7664,-6.7751,-6.7775,-6.7795,0,0,0,0,0,-6.6226,-6.6391,-6.6378,-6.642,-6.6637,-6.6806,-6.6834,-6.686,-6.6798,-6.688,-6.6936,-6.6909,-6.724,-6.7155,-6.7196,-6.7304,-6.7633,-6.7648,-6.7663,-6.7741,-6.777,-6.7795,0,0,0,0,0,0,-6.6288,-6.6406,-6.6393,-6.6599,-6.6693,-6.6799,-6.6903,-6.689,-6.7003,-6.6991,-6.7018,-6.7044,-6.7233,-6.7286,-6.7189,-6.7515,-6.7428,-6.7452,-6.7473,-6.7502,-6.7523,-6.7507,-6.712,0,0,0,0,0,-6.6325,-6.6452,-6.6548,-6.6721,-6.6769,-6.6828,-6.6902,-6.6914,-6.7012,-6.7052,-6.712,-6.7216,-6.7342,-6.7424,-6.7545,-6.7758,-6.7784,-6.7853,-6.7875,-6.7893,-6.7914,-6.8033,-6.8065,-6.7721,-6.772,-6.772,0,0,-6.6404,-6.6484,-6.6563,-6.6736,-6.681,-6.6941,-6.6862,-6.7003,-6.7101,-6.7073,-6.7253,-6.7307,-6.7416,-6.7617,-6.7708,-6.7667,-6.8014,-6.7912,-6.7925,-6.7937,-6.8051,-6.8084,-6.8113,-6.7731,-6.7729,-6.7727,0,0,-6.6616,-6.6689,-6.6842,-6.6918,-6.7031,-6.707,-6.7107,-6.7216,-6.7251,-6.7432,-6.7414,-6.753,-6.7746,-6.7825,-6.7893,-6.8137,-6.8117,-6.8175,-6.8291,-6.8407,-6.8434,-6.8458,-6.8547,-6.8578,-6.8195,-6.8195,-6.8196,0,-6.67,-6.6897,-6.6921,-6.7067,-6.7144,-6.7125,-6.7281,-6.7353,-6.75,-6.7554,-6.7505,-6.7777,-6.7849,-6.8069,-6.8129,-6.8184,-6.8228,-6.8162,-6.8428,-6.8453,-6.8476,-6.8561,-6.8594,-6.8202,-6.8201,-6.82,-6.82,0,-6.6995,-6.7133,-6.7243,-6.7387,-6.7476,-6.7625,-6.7673,-6.776,-6.7765,-6.7808,-6.7994,-6.8079,-6.8218,-6.827,-6.8276,-6.8492,-6.8463,-6.8421,-6.8335,-6.8515,-6.8595,-6.8627,-6.8211,-6.8209,-6.8207,-6.8205,0,0,-6.7252,-6.7409,-6.7449,-6.7515,-6.764,-6.7746,-6.7895,-6.8031,-6.8107,-6.8208,-6.8335,-6.8519,-6.8481,-6.8559,-6.8573,-6.8674,-6.8864,-6.862,-6.8623,-6.8664,-6.9111,-6.9143,-6.918,-6.8851,-6.8858,-6.8863,-6.9102,0,-6.7477,-6.7741,-6.7768,-6.8004,-6.8132,-6.8117,-6.8247,-6.8337,-6.8382,-6.8498,-6.8546,-6.8678,-6.8617,-6.8664,-6.8764,-6.882,-6.8955,-6.8803,-6.897,-6.8976,-6.8946,-6.9222,-6.9256,-6.9478,-6.9133,-6.9139,-6.9143,0,-6.7775,-6.7887,-6.8136,-6.8245,-6.83,-6.8416,-6.8544,-6.8654,-6.8757,-6.8783,-6.8871,-6.8872,-6.9026,-6.8932,-6.9145,-6.9042,-6.9112,-6.915,-6.9159,-6.9177,-6.9071,-6.9249,-6.9549,-6.9583,-6.9192,-6.9188,-6.9184,0,-6.794,-6.8153,-6.833,-6.8387,-6.8517,-6.86,-6.8658,-6.8755,-6.8836,-6.8947,-6.9,-6.9128,-6.9199,-6.9298,-6.9334,-6.9262,-6.9546,-6.9455,-6.9573,-6.9572,-6.9635,-6.9631,-6.9952,-6.9677,-6.9676,-6.9676,-6.9675,0,-6.8189,-6.8343,-6.8406,-6.8516,-6.8688,-6.8717,-6.8887,-6.8941,-6.9027,-6.9147,-6.9141,-6.9253,-6.9293,-6.9412,-6.9441,-6.9615,-6.9646,-6.9672,-6.9678,-6.9674,-6.9671,-6.9721,-6.9707,-6.9684,-6.9683,-6.9681,-6.9679,0,-6.8403,-6.8452,-6.8644,-6.8753,-6.8783,-6.8906,-6.8998,-6.9104,-6.9147,-6.93,-6.9337,-6.9405,-6.9546,-6.9591,-6.976,-6.9779,-6.9983,-6.9974,-6.9949,-6.995,-7.0067,-7.0056,-7.0433,-7.0485,-7.0174,-7.0176,-7.0179,0,-6.856,-6.8678,-6.8799,-6.888,-6.8941,-6.907,-6.9153,-6.9187,-6.9274,-6.9401,-6.9492,-6.9631,-6.9744,-6.9969,-7.0034,-7.0164,-7.016,-7.0283,-7.0179,-7.0172,-7.0165,-7.0158,-7.0171,-7.0303,-7.0306,-7.0309,-7.0311,0,-6.8834,-6.8852,-6.8972,-6.9102,-6.9201,-6.9305,-6.9404,-6.947,-6.9518,-6.9616,-6.976,-6.9849,-7.0022,-7.0161,-7.0294,-7.0353,-7.0342,-7.0343,-7.0378,-7.0376,-7.0357,-7.0371,-7.0004,-7.0335,-7.0332,-7.0331,-7.0329,-7.0329,-6.9025,-6.9131,-6.9233,-6.9368,-6.9446,-6.954,-6.9646,-6.9703,-6.9824,-6.9968,-6.9981,-7.0137,-7.0238,-7.0415,-7.0482,-7.0604,-7.0569,-7.0619,-7.0632,-7.0644,-7.0655,-7.0336,-7.0628,-7.0628,-7.0627,-7.0627,-7.0626,0,-6.9301,-6.9366,-6.949,-6.963,-6.9737,-6.9716,-6.9825,-6.9916,-7.0054,-7.0149,-7.0261,-7.0428,-7.0563,-7.0639,-7.0774,-7.0858,-7.0856,-7.0893,-7.0888,-7.0902,-7.0677,-7.0635,-7.0892,-7.0892,-7.0892,-7.0892,-7.0892,-7.0892,-6.9457,-6.9634,-6.9665,-6.9882,-6.9947,-7.01,-7.0165,-7.0252,-7.0329,-7.0515,-7.0628,-7.0676,-7.0765,-7.0907,-7.103,-7.1049,-7.11,-7.1141,-7.1156,-7.0945,-7.0918,-7.0892,-7.0852,-7.1151,-7.1151,-7.1371,-7.1373,-7.1375]}]]